This is the latest recevied weather packets stored in our database for station/object N4NVD-13. If no packets are shown the sender has not sent any weather packets the latest 10 day(s).
| Time | Temp. | Humidity | Pressure | Rain* | Wind** | Luminosity | Snow |
|---|---|---|---|---|---|---|---|
| 1777855504 | 22.22° C | 56% | 1016.4 hPa | 0 mm | - | 20 W/m² | - |
| 1777855201 | 22.22° C | 55% | 1016.4 hPa | 0 mm | - | 23 W/m² | - |
| 1777854897 | 22.22° C | 56% | 1016.3 hPa | 0 mm | - | 28 W/m² | - |
| 1777854594 | 22.78° C | 53% | 1016.3 hPa | 0 mm | - | 29 W/m² | - |
| 1777854291 | 22.78° C | 53% | 1016.6 hPa | 0 mm | - | 34 W/m² | - |
| 1777853988 | 22.78° C | 54% | 1016.7 hPa | 0 mm | - | 38 W/m² | - |
| 1777853685 | 22.78° C | 52% | 1016.6 hPa | 0 mm | - | 38 W/m² | - |
| 1777853382 | 23.33° C | 53% | 1016.7 hPa | 0 mm | - | 38 W/m² | - |
| 1777853079 | 23.33° C | 52% | 1016.7 hPa | 0 mm | - | 40 W/m² | - |
| 1777852776 | 23.89° C | 50% | 1016.8 hPa | 0 mm | - | 39 W/m² | - |
| 1777852474 | 24.44° C | 49% | 1016.9 hPa | 0 mm | - | 40 W/m² | - |
| 1777852171 | 24.44° C | 48% | 1016.8 hPa | 0 mm | - | 54 W/m² | - |
| 1777851869 | 25° C | 47% | 1016.7 hPa | 0 mm | - | 73 W/m² | - |
| 1777851567 | 25.56° C | 46% | 1016.8 hPa | 0 mm | - | 172 W/m² | - |
| 1777851263 | 25.56° C | 46% | 1016.9 hPa | 0 mm | - | 177 W/m² | - |
| 1777850960 | 25.56° C | 47% | 1016.6 hPa | 0 mm | - | 198 W/m² | - |
| 1777850657 | 25.56° C | 46% | 1016.7 hPa | 0 mm | - | 177 W/m² | - |
| 1777850355 | 25.56° C | 45% | 1016.7 hPa | 0 mm | - | 224 W/m² | - |
| 1777850052 | 26.11° C | 48% | 1016.7 hPa | 0 mm | - | 210 W/m² | - |
| 1777849748 | 26.11° C | 45% | 1016.9 hPa | 0 mm | - | 248 W/m² | - |
| 1777849444 | 26.11° C | 46% | 1016.8 hPa | 0 mm | - | 206 W/m² | - |
| 1777849143 | 26.11° C | 45% | 1016.8 hPa | 0 mm | - | 278 W/m² | - |
| 1777848838 | 25.56° C | 45% | 1016.9 hPa | 0 mm | - | 164 W/m² | - |
| 1777848534 | 25.56° C | 46% | 1017 hPa | 0 mm | - | 206 W/m² | - |
| 1777848231 | 26.11° C | 43% | 1017.1 hPa | 0 mm | - | 272 W/m² | - |
* Rain latest hour (hover to see other rain measurements)
** Current wind speed in m/s (hover to see current wind gust speed)